AOBA-VELOX 3

Last updated on Nov. 2, 2018, 12:02 a.m. UTC

1 41935U 98067KX  18305.47522705  .06673673  12387-4  58971-3 0  9997
2 41935  51.6243 332.8723 0002264  27.6675 118.1989 16.38373561102788

Satellite is not in orbit.